ヴォルフ-ハリントン彗星

43P/Wolf-Harrington (2004)

English version
Home page
Updated on April 23, 2005

---------------------------------------------------------------------

・ プロフィール

・ 写真集

・ 軌道要素

Epoch 2004 Mar. 16.0 TT = JDT 2453080.5  
T 2004 Mar. 17.85329 TT                                 Muraoka 
q   1.5786326            (2000.0)            P               Q
n   0.15271487     Peri.  187.27543     +0.14602249     -0.94064411
a   3.4664252      Node   254.69428     +0.92289814     +0.24106088
e   0.5445935      Incl.   18.52039     +0.35628144     -0.23891069
P   6.45
From 263 observations 1984-1998, mean residual 0".75.  Nongravitational
   parameters A1 = +0.32 +/- 0.02, A2 = -0.0374 +/- 0.0005.

・ 星図

・ 光度変化

        m1 = 7.2 + 5 logΔ + 19.5 log r

---------------------------------------------------------------------

軌道要素は村岡健治氏の計算によるものです。
星図は StellaNavigator Ver.2.0 for Windows (アストロアーツ 編著 / アスキー出版局刊) で作成したものです。
光度グラフはComet for Windowsで作成したものです。

---------------------------------------------------------------------

Copyright(C) Seiichi Yoshida (comet@aerith.net). All rights reserved.